User: anonymous   Login
Location: Freistadt
(48.5112°N, 14.5013°E)
Time: 13:25:16
(UTC+01:00)
Language:

THOR BURNER 2A DEB - Orbit

View from above orbital plane
View from above orbital plane
View from above satellite
View from above satellite

Ground track
Ground track

The orbit data is extracted from the following two-line orbital elements,

1 28591U 74015C   23341.57878473  .00000279  00000-0  14735-3 0  9995
2 28591  99.0394 217.1548 0045805 242.6611 177.2298 14.21452319978724
Epoch (UTC): 07 December 2023 13:53:27
Eccentricity: 0.0045805
inclination: 99.0394°
perigee height: 787 km
apogee height: 853 km
right ascension of ascending node: 217.1548°
argument of perigee: 242.6611°
revolutions per day: 14.21452319
mean anomaly at epoch: 177.2298°
orbit number at epoch: 97872

The dashed part of the orbit path shows where the satellite is in the earth's shadow,  

DLR